Skip Page Navigation
NASA JPL Caltech
NASA Logo - Jet Propulsion Laboratory + View the NASA Portal
+ Center for Near-Earth Object Studies
JPL Home Earth Solar System Stars & Galaxies Technology
JPL Solar System Dynamics
BODIES ORBITS EPHEMERIDES TOOLS PHYSICAL DATA DISCOVERY FAQ SITE MAP
IMPORTANT: The SSD Announcement email list is now available. Major changes are coming in the near future, including possible hostname and/or URL changes. To be notified of such changes, subscribe to this email list.

Please visit this page for more details.


JPL Small-Body Database Browser
Search: [ help ]  
212570 (2006 SE94)
Classification: Main-belt Asteroid          SPK-ID: 2212570
Ephemeris | Orbit Diagram | Orbital Elements | Mission Design | Physical Parameters | Discovery Circumstances | Close-Approach Data ]

[ show orbit diagram ]
Orbital Elements at Epoch 2458600.5 (2019-Apr-27.0) TDB
Reference: JPL 16 (heliocentric ecliptic J2000)
 Element Value Uncertainty (1-sigma)   Units 
e .2377205863647165 5.9506e-08  
a 2.566257458886844 1.9127e-08 au
q 1.956205230997436 1.564e-07 au
i 6.093731883816488 9.5167e-06 deg
node 35.84474767104933 5.0638e-05 deg
peri 210.920616981203 5.442e-05 deg
M 138.7011758970015 2.096e-05 deg
tp 2458021.969305105101
(2017-Sep-25.46930511)
8.4225e-05 TDB
period 1501.580998252128
4.11
1.6788e-05
4.596e-08
d
yr
n .2397473066181895 2.6804e-09 deg/d
Q 3.176309686776252 2.3674e-08 au
  Orbit Determination Parameters
   # obs. used (total)      449  
   data-arc span      7619 days (20.86 yr)  
   first obs. used      1998-11-18  
   last obs. used      2019-09-28  
   planetary ephem.      DE431  
   SB-pert. ephem.      SB431-N16  
   condition code      0  
   norm. resid. RMS      .50611  
   source      ORB  
   producer      Otto Matic  
   solution date      2019-Nov-07 23:46:04  

Additional Information
 Earth MOID = .945764 au 
 Jupiter MOID = 1.86896 au 
 T_jup = 3.384 
[ show covariance matrix ]

Ephemeris | Orbit Diagram | Orbital Elements | Mission Design | Physical Parameters | Discovery Circumstances | Close-Approach Data ]

Physical Parameter Table
Parameter Symbol Value Units Sigma Reference Notes
absolute magnitude H 15.9   n/a MPO454526  

212570 (2006 SE94)          Discovered 2006-Sep-18 by Spacewatch at Kitt Peak
Reference: 20090409/Numbers.arcLast Updated: 2009-04-10

[ show close-approach data ]
Alternate Designations
 2006 SE94 = 2005 EW152 
Ephemeris | Orbit Diagram | Orbital Elements | Mission Design | Physical Parameters | Discovery Circumstances | Close-Approach Data ]
ABOUT SSD CREDITS/AWARDS PRIVACY/COPYRIGHT GLOSSARY LINKS
FirstGov
(server date/time)  
NASA Home Page
Site Manager:   Ryan S. Park
Webmaster  Alan B. Chamberlin